This demonstration page uses our WeatherBlox Daily Observations layout. Learn more.

Left ArrowRight Arrow

47.50024, -111.30081

Hourly Observations for August 16, 2022

Temp ( °F °C ) Dew Point ( °F °C ) Humidity (%) Winds ( mph kmh ) Pressure ( in mb ) Visibility ( mi km ) Precip ( " mm )
12:53 am 00:53 Clear 58 14.4 32 0 37 37 NW 5 7 29.97 1015 10 16 0.00 0.00
1:53 am 01:53 Clear 55 12.8 32 0 41 41 WSW 7 11 29.98 1015 10 16 0.00 0.00
2:53 am 02:53 Clear 56 13.3 33 0.6 42 42 SW 10 17 29.98 1015 10 16 0.00 0.00
3:53 am 03:53 Clear 59 15 33 0.6 37 37 SSW 9 15 29.97 1015 10 16 0.00 0.00
4:53 am 04:53 Clear 55 12.8 32 0 41 41 SW 8 13 29.98 1015 10 16 0.00 0.00
5:53 am 05:53 Clear 52 11.1 33 0.6 48 48 SW 10 17 29.99 1016 10 16 0.00 0.00
6:53 am 06:53 Sunny 56 13.3 35 1.7 45 45 SSW 9 15 30.00 1016 10 16 0.00 0.00
7:53 am 07:53 Sunny 66 18.9 40 4.4 38 38 SW 7 11 30.00 1016 10 16 0.00 0.00
8:53 am 08:53 Sunny 72 22.2 43 6.1 35 35 SW 9 15 30.01 1016 10 16 0.00 0.00
9:53 am 09:53 Sunny 77 25 44 6.7 31 31 SW 7 11 30.01 1016 10 16 0.00 0.00
10:53 am 10:53 Sunny 82 27.8 37 2.8 20 20 VRB 3 6 29.99 1016 10 16 0.00 0.00
11:53 am 11:53 Sunny 86 30 33 0.6 15 15 W 3 6 29.99 1016 10 16 0.00 0.00
12:53 pm 12:53 Sunny 89 31.7 32 0 13 13 Calm 29.98 1015 10 16 0.00 0.00
1:53 pm 13:53 Sunny 91 32.8 26 -3.3 10 10 VRB 6 9 29.97 1015 10 16 0.00 0.00
2:53 pm 14:53 Sunny 93 33.9 26 -3.3 9 9 WSW 8 13 29.94 1014 10 16 0.00 0.00
3:53 pm 15:53 Sunny 94 34.4 26 -3.3 9 9 NNW 6 9 29.92 1013 10 16 0.00 0.00
4:53 pm 16:53 Sunny 95 35 26 -3.3 9 9 ENE 12 19 29.91 1013 10 16 0.00 0.00
5:53 pm 17:53 Sunny 94 34.4 25 -3.9 8 8 E 7 11 29.91 1013 10 16 0.00 0.00
6:53 pm 18:53 Sunny 93 33.9 25 -3.9 9 9 ENE 8 13 29.90 1013 10 16 0.00 0.00
7:53 pm 19:53 Sunny 87 30.6 26 -3.3 11 11 NE 8 13 29.90 1013 10 16 0.00 0.00
8:53 pm 20:53 Clear 77 25 28 -2.2 16 16 ENE 5 7 29.93 1013 10 16 0.00 0.00
9:53 pm 21:53 Clear 74 23.3 28 -2.2 18 18 N 7 11 29.95 1014 10 16 0.00 0.00
10:53 pm 22:53 Clear 71 21.7 32 0 24 24 NNW 9 15 29.96 1015 10 16 0.00 0.00
11:53 pm 23:53 Clear 74 23.3 34 1.1 23 23 N 10 17 29.97 1015 10 16 0.00 0.00

Powered by AerisWeather